Regional Weather Roundup
Issued by NWS

Home | Current Version | Previous Version | Graphics & Text | Print | Product List | Glossary On
Versions: 1 2 3 4 5 6 7 8 9 10 11 12 13 14 15 16 17 18 19 20 21 22 23 24 25 26 27 28 29 30 31 32 33 34 35 36 37 38 39 40 41 42 43 44 45 46 47 48 49 50
000
ASUS43 KLMK 201510
RWRKY
KENTUCKY REGIONAL WEATHER ROUNDUP
NATIONAL WEATHER SERVICE LOUISVILLE KY
1000 AM EST SAT DEC 20 2014

NOTE "FAIR" INDICATES FEW OR NO CLOUDS BELOW 12,000 FEET
WITH NO SIGNIFICANT WEATHER AND/OR OBSTRUCTIONS TO VISIBILITY.

KYZ001>023-026-027-061>063-070>075-201600-
WESTERN AND SOUTH CENTRAL KENTUCKY

CITY           SKY/WX    TMP DP  RH WIND       PRES   REMARKS
PADUCAH        CLOUDY    36  28  73 NE5       30.29S WCI  32
HENDERSON      CLOUDY    32  25  74 CALM      30.31R
OWENSBORO      CLOUDY    32  26  78 NE3       30.31R
HOPKINSVILLE   CLOUDY    34  27  77 E2        30.30R
BOWLING GREEN  CLOUDY    35  25  66 CALM      30.30R
GLASGOW        CLOUDY    33  26  75 CALM      30.28R
$$

KYZ024-025-028>034-038-045-046-053-201600-
NORTH CENTRAL KENTUCKY

CITY           SKY/WX    TMP DP  RH WIND       PRES   REMARKS
LOUISVILLE/SDF CLOUDY    31  25  78 CALM      30.30R
LOUISVILLE/LOU CLOUDY    31  26  82 CALM      30.31R
FORT KNOX      CLOUDY    30  25  80 CALM      30.28R
$$

KYZ035>037-039>044-047>052-055>060-089>105-201600-
NORTHEAST KENTUCKY

CITY           SKY/WX    TMP DP  RH WIND       PRES   REMARKS
LEXINGTON      CLOUDY    30  24  78 NE5       30.27R WCI  25
COVINGTON      CLOUDY    30  24  78 CALM      30.28F HAZE
FRANKFORT      CLOUDY    30  24  78 NE5       30.28R WCI  25
$$

KYZ054-064>069-076>088-106>120-201600-
SOUTHEAST KENTUCKY

CITY           SKY/WX    TMP DP  RH WIND       PRES   REMARKS
JACKSON        CLOUDY    30  23  75 CALM      30.24R
LONDON         CLOUDY    33  25  72 CALM      30.25R
SOMERSET       CLOUDY    32  27  80 CALM      30.28R
MIDDLESBORO    CLOUDY    35  32  88 CALM      30.25R
MONTICELLO     CLOUDY    33  27  79 CALM      30.29R
$$




USA.gov is the U.S. government's official web portal to all federal, state and local government web resources and services.